Weather History for Perry, IA

Change the Weather History Date:

Thursday, March 6, 2014

  Actual Average Record
Temperature  
Mean Temperature 28 °F -  
Max Temperature 36 °F 39 °F 69 °F (2012)
Min Temperature 21 °F 20 °F -15 °F (1960)
Degree Days  
Heating Degree Days 36    
Moisture  
Dew Point 23 °F    
Average Humidity 81    
Maximum Humidity 87    
Minimum Humidity 72    
Precipitation  
Precipitation 0.00 in - - ()
Sea Level Pressure  
Sea Level Pressure 30.10 in    
Wind  
Wind Speed 11 mph (SSE)    
Max Wind Speed 17 mph    
Max Gust Speed -    
Visibility 7 miles    
Events      
Averages and records for this station are not official NWS values.
T = Trace of Precipitation, MM = Missing Value Source: NWS Daily Summary

Daily Weather History Graph

Daily Weather History Graph

Search for Another Location

Airport:

Trip Planner

Search our weather history database for the weather conditions in past years. The results will help you decide how hot, cold, wet, or windy it might be!

Date:

Astronomy

Mar. 06, 2014 Rise Set
Actual Time 6:43 AM CST 6:12 PM CST
Civil Twilight 6:15 AM CST 6:40 PM CST
Nautical Twilight 5:43 AM CST 7:13 PM CST
Astronomical Twilight 5:11 AM CST 7:45 PM CST
Moon 9:46 AM CST (3/6) No Moon Set
Length of Visible Light 12h 25m
Length of Day
11h 29m
Waxing Crescent, 32% of the Moon is Illuminated
Mar 6
Waxing Crescent
Mar 8
First Quarter
Mar 16
Full
Mar 23
Last Quarter
Mar 30
New

Hourly Weather History & Observations

Time (CST) Temp. Windchill Dew Point Humidity Pressure Visibility Wind Dir Wind Speed Gust Speed Precip Events Conditions
12:15 AM 21.9 °F 10.4 °F 17.2 °F 82% 30.31 in 10.0 mi SE 11.5 mph - N/A   Overcast
12:35 AM 21.7 °F 10.2 °F 17.1 °F 82% 30.30 in 10.0 mi SE 11.5 mph - N/A   Overcast
12:55 AM 22.1 °F 11.3 °F 17.2 °F 82% 30.31 in 10.0 mi SE 10.4 mph - N/A   Overcast
1:15 AM 22.1 °F 12.8 °F 17.4 °F 82% 30.31 in 10.0 mi SSE 8.1 mph - N/A   Overcast
1:35 AM 22.1 °F 12.8 °F 17.4 °F 82% 30.31 in 10.0 mi SE 8.1 mph - N/A   Overcast
1:55 AM 22.1 °F 12.8 °F 17.6 °F 83% 30.31 in 10.0 mi SE 8.1 mph - N/A   Overcast
2:15 AM 21.9 °F 12.5 °F 17.8 °F 84% 30.30 in 10.0 mi SE 8.1 mph - N/A   Overcast
2:35 AM 21.9 °F 11.7 °F 17.8 °F 84% 30.29 in 10.0 mi SE 9.2 mph - N/A   Overcast
2:55 AM 21.9 °F 12.5 °F 18.0 °F 85% 30.28 in 10.0 mi SE 8.1 mph - N/A   Overcast
3:15 AM 21.9 °F 11.7 °F 17.8 °F 84% 30.28 in 10.0 mi SE 9.2 mph - N/A   Overcast
3:35 AM 22.1 °F 12.8 °F 18.1 °F 85% 30.27 in 10.0 mi SE 8.1 mph - N/A   Overcast
3:55 AM 21.9 °F 11.7 °F 18.1 °F 85% 30.26 in 10.0 mi SE 9.2 mph - N/A   Overcast
4:15 AM 21.9 °F 12.5 °F 18.1 °F 85% 30.27 in 10.0 mi SE 8.1 mph - N/A   Overcast
4:35 AM 22.1 °F 13.7 °F 18.3 °F 85% 30.27 in 7.0 mi SE 6.9 mph - N/A   Overcast
4:55 AM 22.1 °F 12.8 °F 18.3 °F 85% 30.26 in 10.0 mi SE 8.1 mph - N/A   Overcast
5:15 AM 22.1 °F 12.0 °F 18.3 °F 85% 30.25 in 10.0 mi SE 9.2 mph - N/A   Overcast
5:35 AM 21.9 °F 12.5 °F 18.3 °F 86% 30.24 in 7.0 mi SE 8.1 mph - N/A   Overcast
5:55 AM 22.1 °F 12.0 °F 18.3 °F 85% 30.24 in 7.0 mi SE 9.2 mph - N/A   Overcast
6:15 AM 22.1 °F 12.8 °F 18.5 °F 86% 30.24 in 7.0 mi SSE 8.1 mph - N/A   Overcast
6:35 AM 21.9 °F 11.7 °F 18.3 °F 86% 30.24 in 7.0 mi SE 9.2 mph - N/A   Overcast
6:55 AM 21.9 °F 11.0 °F 18.5 °F 87% 30.22 in 7.0 mi SE 10.4 mph - N/A   Overcast
7:15 AM 22.1 °F 12.0 °F 18.5 °F 86% 30.22 in 7.0 mi SE 9.2 mph - N/A   Overcast
7:35 AM 22.1 °F 12.8 °F 18.5 °F 86% 30.22 in 7.0 mi SE 8.1 mph - N/A   Overcast
7:55 AM 22.5 °F 12.4 °F 18.9 °F 86% 30.22 in 7.0 mi SSE 9.2 mph - N/A   Overcast
8:15 AM 22.5 °F 11.7 °F 18.7 °F 85% 30.21 in 7.0 mi SSE 10.4 mph - N/A   Overcast
8:35 AM 22.8 °F 11.5 °F 19.0 °F 85% 30.21 in 7.0 mi SSE 11.5 mph - N/A   Overcast
8:55 AM 23.0 °F 11.7 °F 19.2 °F 85% 30.21 in 7.0 mi SSE 11.5 mph - N/A   Overcast
9:15 AM 23.2 °F 12.0 °F 19.2 °F 85% 30.20 in 7.0 mi SSE 11.5 mph - N/A   Overcast
9:35 AM 23.5 °F 11.8 °F 19.4 °F 84% 30.19 in 7.0 mi SSE 12.7 mph - N/A   Overcast
9:55 AM 23.9 °F 12.3 °F 19.6 °F 84% 30.20 in 5.0 mi SSE 12.7 mph - N/A   Haze
10:15 AM 24.8 °F 14.0 °F 20.3 °F 83% 30.19 in 7.0 mi SSE 11.5 mph - N/A   Overcast
10:35 AM 25.3 °F 14.1 °F 20.5 °F 82% 30.19 in 5.0 mi SSE 12.7 mph - N/A   Haze
10:55 AM 25.5 °F 14.9 °F 20.8 °F 82% 30.18 in 7.0 mi SSE 11.5 mph - N/A   Overcast
11:15 AM 27.0 °F 16.1 °F 21.7 °F 81% 30.16 in 5.0 mi SSE 12.7 mph - N/A   Haze
11:35 AM 27.5 °F 17.4 °F 22.1 °F 80% 30.16 in 7.0 mi South 11.5 mph - N/A   Overcast
12:00 PM 29.3 °F 18.6 °F 23.2 °F 78% 30.14 in 7.0 mi South 13.8 mph - N/A   Overcast
12:15 PM 29.5 °F 18.4 °F 23.4 °F 78% 30.14 in 5.0 mi South 15.0 mph - N/A   Haze
12:35 PM 30.2 °F 18.5 °F 23.7 °F 77% 30.11 in 5.0 mi South 17.3 mph - N/A   Haze
12:55 PM 31.1 °F 19.7 °F 23.9 °F 75% 30.09 in 5.0 mi SSE 17.3 mph - N/A   Haze
1:15 PM 32.0 °F 21.2 °F 24.6 °F 74% 30.08 in 5.0 mi South 16.1 mph - N/A   Haze
1:35 PM 32.0 °F 20.8 °F 24.3 °F 73% 30.07 in 7.0 mi South 17.3 mph - N/A   Clear
1:55 PM 32.9 °F 22.0 °F 25.2 °F 73% 30.06 in 7.0 mi South 17.3 mph - N/A   Clear
2:15 PM 33.6 °F 23.3 °F 25.5 °F 72% 30.05 in 7.0 mi South 16.1 mph - N/A   Clear
2:35 PM 34.2 °F 23.6 °F 26.2 °F 73% 30.04 in 7.0 mi South 17.3 mph - N/A   Clear
2:55 PM 34.7 °F 24.3 °F 26.6 °F 72% 30.03 in 7.0 mi South 17.3 mph - N/A   Clear
3:15 PM 35.6 °F 27.1 °F 27.3 °F 72% 30.02 in 7.0 mi South 12.7 mph - N/A   Clear
3:35 PM 35.6 °F 25.9 °F 27.5 °F 72% 30.00 in 7.0 mi South 16.1 mph - N/A   Clear
3:55 PM 36.0 °F 27.5 °F 28.2 °F 73% 29.99 in 7.0 mi SSE 12.7 mph - N/A   Clear
4:15 PM 36.0 °F 27.5 °F 28.6 °F 75% 29.99 in 7.0 mi South 12.7 mph - N/A   Clear
4:35 PM 35.8 °F 27.3 °F 28.8 °F 76% 29.98 in 7.0 mi South 12.7 mph - N/A   Clear
4:55 PM 35.1 °F 26.4 °F 28.6 °F 77% 29.97 in 7.0 mi South 12.7 mph - N/A   Clear
5:15 PM 34.7 °F 25.5 °F 28.9 °F 79% 29.96 in 7.0 mi South 13.8 mph - N/A   Clear
5:35 PM 34.7 °F 25.1 °F 28.9 °F 79% 29.94 in 7.0 mi South 15.0 mph - N/A   Clear
5:55 PM 34.7 °F 24.7 °F 28.9 °F 79% 29.94 in 7.0 mi South 16.1 mph - N/A   Clear
6:15 PM 34.7 °F 24.7 °F 28.4 °F 78% 29.93 in 7.0 mi SSE 16.1 mph - N/A   Clear
6:35 PM 34.5 °F 24.8 °F 28.0 °F 77% 29.94 in 7.0 mi SSE 15.0 mph - N/A   Clear
6:55 PM 33.3 °F 23.2 °F 28.0 °F 81% 29.93 in 7.0 mi SSE 15.0 mph - N/A   Clear
7:15 PM 33.1 °F 23.0 °F 27.9 °F 81% 29.92 in 7.0 mi SSE 15.0 mph - N/A   Clear
7:35 PM 32.2 °F 21.8 °F 27.5 °F 83% 29.92 in 7.0 mi SSE 15.0 mph - N/A   Clear
7:55 PM 32.2 °F 21.8 °F 27.1 °F 82% 29.91 in 7.0 mi SSE 15.0 mph - N/A   Clear
8:15 PM 32.0 °F 22.1 °F 27.0 °F 82% 29.92 in 7.0 mi SSE 13.8 mph - N/A   Clear
8:35 PM 32.0 °F 22.5 °F 27.0 °F 82% 29.91 in 7.0 mi SSE 12.7 mph - N/A   Clear
8:55 PM 31.8 °F 23.3 °F 26.8 °F 82% 29.90 in 5.0 mi SSE 10.4 mph - N/A   Haze
9:15 PM 31.6 °F 22.1 °F 26.6 °F 82% 29.90 in 7.0 mi SSE 12.7 mph - N/A   Clear
9:35 PM 31.6 °F 21.2 °F 26.6 °F 82% 29.89 in 7.0 mi SSE 15.0 mph - N/A   Clear
9:55 PM 31.3 °F 22.1 °F 26.8 °F 83% 29.90 in 5.0 mi SSE 11.5 mph - N/A   Clear
10:15 PM 31.8 °F 23.3 °F 27.1 °F 83% 29.90 in 5.0 mi SSE 10.4 mph - N/A   Haze
10:35 PM 31.1 °F 22.4 °F 27.1 °F 85% 29.89 in 5.0 mi SSE 10.4 mph - N/A   Clear
10:55 PM 31.5 °F 24.2 °F 27.0 °F 83% 29.89 in 5.0 mi SSE 8.1 mph - N/A   Clear
11:15 PM 31.6 °F 23.7 °F 27.3 °F 84% 29.89 in 5.0 mi SSE 9.2 mph - N/A   Clear
11:35 PM 31.1 °F 23.1 °F 27.5 °F 87% 29.88 in 5.0 mi SSE 9.2 mph - N/A   Clear
11:55 PM 31.1 °F 23.7 °F 27.5 °F 87% 29.87 in 5.0 mi SSE 8.1 mph - N/A   Clear